FBSK

Details ICAO FBSK (GBE)
Name SIR SERETSE KHAMA INTL
Region Botswana
Timezone Africa/Gaborone (UTC+2.0)
Plans Departing 86
Arriving 78
Stats Elevation 3,299 ft / 1,006 m (AMSL)
Location -24.555225° 25.918208°
Runways 1
Magnetic Variation 15.703° W
Sunrise 2018-05-25 04:50:57 UTC / 2018-05-25 06:50:57 Local
Sunset 2018-05-25 15:38:26 UTC / 2018-05-25 17:38:26 Local
Advertisement - Login to hide

Runways

ID Width Length Bearing (true) Bearing (mag) Surface Threshold Offset Overrun Length
08 148 ft / 45 m 9,849 ft / 3,002 m 61.48° 77.18° Concrete 0 ft / 0 m 197 ft / 60 m
26 148 ft / 45 m 9,849 ft / 3,002 m 241.47° 257.17° Concrete 0 ft / 0 m 197 ft / 60 m

Map

Weather


0- 5 10 15 20 25 30 35+ Temperature / ° C

Clouds and Precipitation
Forecast for 2018-05-25 12:00 UTC. Updated a minute ago

Ground ~20,000 ft ~40,000 ft Winds

METAR

FBSK 251100Z VRB04KT 9999 FEW030 27/M01 Q1021 NOSIG

TAF

Not found

Frequencies

Ground 121.90 MHz KHAMA GND
Approach 128.20 MHz GABORONE APP
Tower 118.30 MHz KHAMA TWR
Warning: Do not use this data for real-world aviation or navigation. No guarantee of current accuracy is given.